[[[{"header":{"parameterUnit":"kt","parameterCategory":2,"dx":1,"dy":1,"la1":30.253999710083008,"la2":30.299108505249023,"lo1":-89.0895004272461,"lo2":-89.04439544677734,"nx":28,"ny":28,"refTime":"2022-10-03T21:00:00:Z","depth":0,"parameterNumber":1,"parameterNumberName":"U-component_of_WINDS"},"data":[0.5701,0.5644,0.5634,0.5564,0.5544,0.5494,0.5474,0.5446,0.5421,0.5361,0.5325,0.531,0.5282,0.5236,0.5196,0.519,0.5173,0.516,0.5154,0.5224,0.5232,0.5241,0.5253,0.5157,0.5157,0.5083,0.5082,0.5081,0.5753,0.5732,0.5693,0.5648,0.5614,0.5621,0.5586,0.5557,0.5512,0.5482,0.5446,0.5392,0.5349,0.5325,0.5281,0.5254,0.5254,0.5242,0.5242,0.5237,0.5312,0.5325,0.5243,0.5243,0.5243,0.5243,0.5243,0.5243,0.5843,0.5809,0.5776,0.5733,0.5708,0.5679,0.5645,0.5626,0.5588,0.5541,0.5538,0.5487,0.5455,0.5398,0.5377,0.5337,0.5347,0.5331,0.5327,0.5322,0.5318,0.5422,0.5329,0.533,0.533,0.533,0.533,0,0.5906,0.59,0.5861,0.582,0.5788,0.5755,0.5723,0.5702,0.5687,0.5655,0.5609,0.5581,0.5525,0.548,0.5437,0.5418,0.542,0.5421,0.5409,0.5408,0.5412,0.5407,0.5526,0.5423,0.5423,0.5424,0.5424,0.5425,0.5994,0.5956,0.5917,0.5892,0.5872,0.5831,0.5804,0.5793,0.5765,0.5725,0.5695,0.5651,0.5614,0.5542,0.552,0.5479,0.5479,0.544,0.5472,0.5474,0.5475,0.5476,0.5471,0.5433,0.5432,0.5431,0.543,0,0.6044,0.6028,0.5967,0.5932,0.5922,0.5883,0.5853,0.582,0.5806,0.5757,0.5745,0.5722,0.5677,0.5662,0.5608,0.5601,0.5535,0.5538,0.5546,0.5544,0.5506,0.5509,0.539,0.5372,0.5475,0.5474,0.5473,0,0.6112,0.6063,0.6042,0.6007,0.5953,0.5943,0.5889,0.5871,0.5843,0.5805,0.5806,0.577,0.5757,0.5718,0.5708,0.5652,0.5643,0.5633,0.563,0.5631,0.5632,0.5614,0.5617,0.563,0.563,0.5631,0.5631,0,0.6189,0.6122,0.6066,0.6047,0.6005,0.5979,0.596,0.5929,0.5903,0.5867,0.585,0.5809,0.5786,0.5754,0.5741,0.5764,0.5674,0.5701,0.5663,0.5663,0.5641,0.5642,0.5543,0.5632,0.5632,0.5632,0.5633,0,0.624,0.6204,0.6126,0.609,0.6073,0.6036,0.5995,0.596,0.5927,0.5918,0.5889,0.5888,0.5839,0.5868,0.58,0.5832,0.5809,0.5796,0.5793,0.5785,0.5816,0.5759,0.5669,0.5657,0.5782,0.5783,0.5784,0,0.6333,0.6249,0.624,0.6165,0.6124,0.6127,0.6087,0.6057,0.6042,0.6005,0.5989,0.5947,0.5965,0.5949,0.5918,0.5899,0.5857,0.5904,0.5849,0.5847,0.5854,0.5772,0.5761,0.5691,0.58,0.5798,0.5797,0,0.6402,0.635,0.6338,0.6316,0.6275,0.6241,0.6195,0.6151,0.6126,0.6094,0.6053,0.5995,0.6006,0.598,0.5974,0.5943,0.5885,0.5958,0.5957,0.5943,0.5807,0.5797,0.5785,0.5888,0.5886,0.5885,0.581,0,0.6478,0.6435,0.6401,0.6353,0.6325,0.6278,0.6261,0.6234,0.623,0.6215,0.6157,0.6128,0.6083,0.6067,0.6064,0.5997,0.6005,0.6017,0.604,0.5988,0.5962,0.5952,0.608,0.608,0.6081,0.6081,0,0,0.6569,0.6506,0.6496,0.645,0.6425,0.6428,0.6379,0.6356,0.6307,0.629,0.6304,0.6217,0.6193,0.6124,0.6106,0.6089,0.6074,0.6093,0.6014,0.6006,0.5999,0.5972,0.5962,0.6082,0.6082,0.6083,0.6083,0,0.6592,0.6569,0.6521,0.6496,0.6458,0.6444,0.6433,0.6396,0.6383,0.6327,0.6329,0.6292,0.6223,0.6197,0.6174,0.6102,0.6105,0.609,0.6056,0.602,0.6012,0.6004,0.5976,0.5967,0.6084,0.6084,0.6084,0,0.6655,0.6628,0.6603,0.6547,0.6522,0.6481,0.6502,0.6458,0.6426,0.6431,0.6374,0.6356,0.6319,0.6257,0.6228,0.624,0.6133,0.6165,0.6161,0.6157,0.612,0.611,0.6102,0.6216,0.6216,0.6217,0,0,0.6678,0.6637,0.6604,0.6551,0.6535,0.6513,0.649,0.6483,0.6451,0.6438,0.6414,0.6382,0.6341,0.6315,0.6276,0.6211,0.6201,0.6182,0.6175,0.617,0.6163,0.6126,0.6116,0.6219,0.6219,0.6219,0,0,0.6688,0.6647,0.665,0.6586,0.6555,0.6518,0.6486,0.6488,0.6451,0.6454,0.6442,0.6433,0.6374,0.6356,0.6385,0.6284,0.6309,0.6301,0.6298,0.6289,0.6283,0.6288,0.6401,0,0,0,0,0,0.6702,0.6652,0.6655,0.6642,0.6571,0.6517,0.6508,0.6496,0.6513,0.6488,0.6469,0.6474,0.6369,0.6394,0.6381,0.6348,0.6244,0.624,0.6235,0.6215,0.6207,0.62,0,0,0,0,0,0,0.6697,0.6681,0.6656,0.6618,0.6602,0.6519,0.6545,0.6541,0.6516,0.6517,0.6477,0.6472,0.6461,0.64,0.6388,0.6357,0.6405,0.6242,0.6239,0.6235,0.6212,0.6205,0.62,0,0,0,0,0,0.6693,0.668,0.6569,0.6618,0.6604,0.6577,0.6547,0.6543,0.6524,0.6493,0.6488,0.6517,0.6461,0.645,0.6393,0.6363,0.6413,0.6409,0.624,0.6237,0.6234,0.6209,0,0,0,0,0,0,0.669,0.6676,0.6566,0.6561,0.6636,0.6581,0.6572,0.6546,0.6501,0.6495,0.6532,0.6534,0.646,0.6452,0.6444,0.6365,0.642,0.6415,0.6413,0.6238,0.6235,0.6233,0,0,0,0,0,0,0.6683,0.6672,0.6563,0.6586,0.6584,0.6585,0.6577,0.6527,0.65,0.6542,0.6543,0.6534,0.6472,0.6453,0.6446,0.6368,0.6425,0.642,0.6418,0.6416,0.6236,0.6234,0,0,0,0,0,0,0.6678,0.6669,0.6587,0.6586,0.6584,0.653,0.6541,0.6468,0.652,0.6544,0.6524,0.6526,0.6473,0.6466,0.6448,0.6373,0.6369,0.6425,0.6422,0.642,0.6418,0,0,0,0,0,0,0,0.6674,0.674,0.6593,0.6585,0.6584,0.6517,0.6516,0.6515,0.652,0.6522,0.6524,0.6525,0.6449,0.6444,0.6439,0.6376,0,0,0.6425,0.6423,0,0,0,0,0,0,0,0,0.6744,0.6741,0.6593,0.6592,0.6591,0.6517,0.6516,0.6515,0.6521,0.6522,0.6524,0.6525,0.6447,0.6444,0.644,0,0,0,0,0,0,0,0,0,0,0,0,0,0,0,0.6593,0.6592,0,0.6517,0.6516,0.6515,0.6521,0.6522,0.6523,0.6524,0.6446,0.6443,0.644,0,0,0,0,0,0,0,0,0,0,0,0,0,0,0,0,0,0,0,0,0,0,0,0,0,0,0,0,0,0,0,0,0,0,0,0,0,0,0,0,0,0,0,0,0,0,0,0,0,0,0,0,0,0,0,0,0,0,0,0,0,0,0,0,0,0,0,0,0]}],[{"header":{"parameterUnit":"kt","parameterCategory":2,"dx":1,"dy":1,"la1":30.253999710083008,"la2":30.299108505249023,"lo1":-89.0895004272461,"lo2":-89.04439544677734,"nx":28,"ny":28,"refTime":"2022-10-03T21:00:00:Z","depth":0,"parameterNumber":2,"parameterNumberName":"V-component_of_WINDS"},"data":[-3.3779,-3.3749,-3.3744,-3.3707,-3.3696,-3.367,-3.3659,-3.3644,-3.3629,-3.3597,-3.3577,-3.3566,-3.3548,-3.3522,-3.3499,-3.3495,-3.3486,-3.3483,-3.3478,-3.35,-3.3502,-3.3505,-3.3513,-3.3481,-3.3481,-3.3456,-3.3456,-3.3455,-3.3807,-3.3796,-3.3774,-3.3748,-3.373,-3.3732,-3.3711,-3.3695,-3.367,-3.3651,-3.3629,-3.3599,-3.3573,-3.3554,-3.3528,-3.3513,-3.3511,-3.3507,-3.3508,-3.3505,-3.3529,-3.3537,-3.351,-3.351,-3.351,-3.351,-3.351,-3.351,-3.3856,-3.3837,-3.3818,-3.3793,-3.3778,-3.376,-3.3741,-3.3728,-3.3704,-3.3675,-3.3669,-3.364,-3.3617,-3.3578,-3.3562,-3.3539,-3.3541,-3.3533,-3.3531,-3.3529,-3.3531,-3.3575,-3.3533,-3.3533,-3.3533,-3.3533,-3.3533,0,-3.3891,-3.3887,-3.3863,-3.3839,-3.3819,-3.3798,-3.3776,-3.3764,-3.3748,-3.3728,-3.3699,-3.3681,-3.3644,-3.3615,-3.3585,-3.3569,-3.3564,-3.3561,-3.3556,-3.3559,-3.357,-3.3567,-3.3609,-3.3561,-3.3561,-3.3561,-3.3561,-3.3561,-3.3942,-3.3918,-3.3892,-3.3876,-3.3862,-3.3835,-3.3817,-3.3805,-3.3786,-3.3757,-3.3739,-3.3709,-3.3684,-3.3635,-3.3615,-3.3585,-3.3582,-3.3566,-3.3577,-3.3585,-3.3585,-3.3587,-3.3586,-3.3564,-3.3563,-3.3563,-3.3563,0,-3.3973,-3.3959,-3.3918,-3.3892,-3.3885,-3.386,-3.3837,-3.3815,-3.3802,-3.377,-3.3761,-3.3739,-3.3708,-3.3689,-3.3648,-3.3639,-3.3602,-3.3598,-3.3612,-3.3611,-3.3597,-3.3599,-3.3546,-3.354,-3.3571,-3.357,-3.357,0,-3.4012,-3.3979,-3.3961,-3.3937,-3.3902,-3.3888,-3.3853,-3.3837,-3.3815,-3.3789,-3.378,-3.3756,-3.3734,-3.3708,-3.3694,-3.3659,-3.365,-3.3641,-3.3638,-3.3643,-3.3644,-3.363,-3.3632,-3.3628,-3.3628,-3.3628,-3.3628,0,-3.4063,-3.401,-3.3973,-3.3958,-3.3923,-3.3905,-3.3889,-3.3862,-3.3842,-3.3814,-3.3801,-3.3768,-3.3749,-3.3724,-3.3707,-3.3716,-3.3662,-3.367,-3.3653,-3.3654,-3.364,-3.3641,-3.3601,-3.3629,-3.3629,-3.3629,-3.3629,0,-3.409,-3.4063,-3.4007,-3.398,-3.3966,-3.3938,-3.3906,-3.3878,-3.3849,-3.3838,-3.3815,-3.3805,-3.3769,-3.378,-3.3732,-3.3749,-3.3733,-3.372,-3.3718,-3.3713,-3.3725,-3.3707,-3.3669,-3.3665,-3.3712,-3.3713,-3.3713,0,-3.4156,-3.4093,-3.408,-3.4026,-3.3995,-3.3989,-3.3958,-3.3931,-3.3914,-3.3885,-3.3865,-3.3829,-3.3832,-3.3818,-3.3797,-3.3774,-3.3752,-3.3776,-3.3735,-3.3734,-3.3746,-3.3711,-3.3711,-3.368,-3.3721,-3.3721,-3.372,0,-3.4202,-3.4157,-3.4147,-3.4131,-3.4091,-3.4061,-3.4026,-3.3987,-3.3969,-3.3936,-3.3906,-3.3853,-3.3855,-3.3828,-3.3814,-3.3793,-3.3767,-3.3795,-3.3794,-3.3794,-3.3722,-3.3723,-3.3718,-3.3762,-3.3761,-3.376,-3.3726,0,-3.4256,-3.4219,-3.4192,-3.4149,-3.4123,-3.4085,-3.4062,-3.4038,-3.4029,-3.401,-3.3963,-3.3928,-3.3884,-3.387,-3.3857,-3.3814,-3.3818,-3.3817,-3.3824,-3.38,-3.3789,-3.3784,-3.3844,-3.3844,-3.3844,-3.3844,0,0,-3.4322,-3.4268,-3.425,-3.4213,-3.419,-3.4179,-3.4141,-3.4116,-3.4065,-3.4049,-3.4054,-3.3972,-3.3941,-3.3886,-3.3876,-3.3856,-3.3847,-3.3853,-3.3811,-3.3808,-3.3804,-3.3792,-3.3787,-3.3844,-3.3844,-3.3844,-3.3844,0,-3.4337,-3.4309,-3.427,-3.4245,-3.4205,-3.4186,-3.4177,-3.4134,-3.4119,-3.407,-3.4059,-3.4026,-3.3956,-3.3928,-3.3905,-3.3861,-3.3853,-3.3849,-3.3836,-3.3812,-3.3809,-3.3806,-3.3793,-3.3789,-3.3844,-3.3844,-3.3844,0,-3.4381,-3.4351,-3.4328,-3.4271,-3.4244,-3.4207,-3.4212,-3.417,-3.4144,-3.4127,-3.4077,-3.4053,-3.401,-3.3958,-3.3933,-3.3935,-3.386,-3.3875,-3.3875,-3.3871,-3.3846,-3.3842,-3.3838,-3.3889,-3.3889,-3.3889,0,0,-3.4396,-3.4359,-3.4319,-3.4272,-3.4256,-3.4224,-3.42,-3.4187,-3.415,-3.4135,-3.4102,-3.4065,-3.4026,-3.3999,-3.3959,-3.3903,-3.3894,-3.3882,-3.388,-3.3879,-3.3874,-3.3849,-3.3845,-3.389,-3.389,-3.389,0,0,-3.4402,-3.4354,-3.435,-3.4292,-3.4259,-3.4213,-3.4185,-3.4179,-3.414,-3.4141,-3.4112,-3.41,-3.405,-3.4025,-3.4043,-3.3961,-3.3968,-3.3963,-3.3978,-3.3975,-3.3973,-3.398,-3.4037,0,0,0,0,0,-3.4402,-3.4361,-3.4358,-3.4344,-3.4268,-3.4216,-3.4206,-3.4183,-3.4191,-3.4171,-3.4143,-3.4134,-3.403,-3.4046,-3.4032,-3.401,-3.3904,-3.3902,-3.39,-3.3907,-3.3904,-3.3902,0,0,0,0,0,0,-3.4397,-3.438,-3.4359,-3.4312,-3.4294,-3.4217,-3.4226,-3.4219,-3.4193,-3.4192,-3.414,-3.4132,-3.4109,-3.4051,-3.4039,-3.4019,-3.4042,-3.3903,-3.3901,-3.3899,-3.3906,-3.3904,-3.3902,0,0,0,0,0,-3.4392,-3.4379,-3.4262,-3.4312,-3.4297,-3.4257,-3.4227,-3.4221,-3.42,-3.4155,-3.4147,-3.4185,-3.411,-3.4097,-3.4044,-3.4026,-3.405,-3.4046,-3.3902,-3.39,-3.3899,-3.3905,0,0,0,0,0,0,-3.4389,-3.4372,-3.4258,-3.4253,-3.4325,-3.4261,-3.425,-3.4224,-3.4164,-3.4156,-3.4199,-3.42,-3.4109,-3.41,-3.409,-3.403,-3.4057,-3.4052,-3.4049,-3.3901,-3.3899,-3.3898,0,0,0,0,0,0,-3.4379,-3.4368,-3.4255,-3.4273,-3.4269,-3.4265,-3.4255,-3.4204,-3.4163,-3.4211,-3.421,-3.42,-3.4122,-3.4101,-3.4094,-3.4015,-3.4062,-3.4058,-3.4055,-3.4053,-3.39,-3.3899,0,0,0,0,0,0,-3.4374,-3.4364,-3.4274,-3.4271,-3.4268,-3.4205,-3.4219,-3.414,-3.4182,-3.4214,-3.4185,-3.4186,-3.4123,-3.4116,-3.4096,-3.402,-3.4016,-3.4062,-3.4059,-3.4057,-3.4056,0,0,0,0,0,0,0,-3.437,-3.4442,-3.4291,-3.427,-3.4267,-3.4202,-3.42,-3.4199,-3.4182,-3.4183,-3.4184,-3.4185,-3.4088,-3.4083,-3.4078,-3.4025,0,0,-3.4063,-3.406,0,0,0,0,0,0,0,0,-3.4446,-3.4443,-3.4291,-3.429,-3.4289,-3.4202,-3.4201,-3.4199,-3.4182,-3.4183,-3.4184,-3.4185,-3.4086,-3.4082,-3.4078,0,0,0,0,0,0,0,0,0,0,0,0,0,0,0,-3.4291,-3.429,0,-3.4202,-3.4201,-3.42,-3.4182,-3.4183,-3.4184,-3.4185,-3.4085,-3.4082,-3.4079,0,0,0,0,0,0,0,0,0,0,0,0,0,0,0,0,0,0,0,0,0,0,0,0,0,0,0,0,0,0,0,0,0,0,0,0,0,0,0,0,0,0,0,0,0,0,0,0,0,0,0,0,0,0,0,0,0,0,0,0,0,0,0,0,0,0,0,0,0]}]]]